Date,TemperatureHighF,TemperatureAvgF,TemperatureLowF,DewpointHighF,DewpointAvgF,DewpointLowF,HumidityHigh,HumidityAvg,HumidityLow,PressureMaxIn,PressureMinIn,WindSpeedMaxMPH,WindSpeedAvgMPH,GustSpeedMaxMPH,PrecipitationSumIn
2013-1-1,21.0,13.0,1.9,14.9,9.7,0.9,90,83,74,30.41,30.21,10,3,11,0.00
2013-1-2,37.9,23.1,7.0,30.0,20.0,6.4,93,85,73,30.32,30.14,12,3,12,0.00
2013-1-3,30.0,22.8,7.0,26.8,19.5,10.9,92,82,69,30.49,30.31,14,3,14,0.00
2013-1-4,30.9,16.8,7.0,21.2,14.1,9.1,99,83,66,30.39,30.22,11,4,14,0.00
2013-1-5,33.1,20.9,9.0,24.3,17.7,9.5,94,83,68,30.32,30.09,25,4,25,0.00
2013-1-6,34.0,21.4,6.1,24.8,17.6,8.2,92,81,68,30.40,30.19,14,3,15,0.00
2013-1-7,37.9,29.4,14.0,30.2,25.0,15.1,93,80,71,30.19,29.99,18,5,22,0.00
2013-1-8,37.9,24.1,10.9,30.7,22.0,10.2,93,87,76,30.22,29.92,17,3,18,0.00
2013-1-9,44.1,27.6,16.0,32.7,26.6,16.9,94,85,62,30.50,30.21,7,1,8,0.00
2013-1-10,37.9,32.1,21.0,36.5,31.7,21.9,96,92,72,30.38,29.72,13,2,14,0.22
2013-1-11,48.0,38.7,25.0,44.4,37.3,18.0,97,92,77,29.81,29.40,30,6,30,0.01
2013-1-12,25.0,18.8,10.9,19.6,10.4,6.1,82,73,61,30.24,29.81,24,8,29,0.00
2013-1-13,24.1,12.6,5.0,10.8,6.1,2.8,89,77,58,30.44,30.22,14,4,16,0.00
2013-1-14,30.0,13.6,1.9,15.1,8.7,0.5,98,79,53,30.57,30.44,12,2,13,0.00
2013-1-15,35.1,19.0,7.0,23.9,15.4,4.8,93,81,62,30.45,30.12,18,3,18,0.00
2013-1-16,53.1,33.8,19.0,36.1,27.6,16.7,92,77,54,30.29,30.00,12,4,16,0.00
2013-1-17,46.0,30.2,23.0,34.9,28.7,21.9,96,89,64,30.51,30.29,7,1,8,0.00
2013-1-18,51.1,35.3,24.1,36.5,30.5,24.6,95,80,56,30.33,29.93,19,6,21,0.00
2013-1-19,55.0,38.3,24.1,34.2,28.5,13.3,93,70,46,30.39,29.91,18,6,24,0.00
2013-1-20,24.1,18.2,10.9,16.7,10.5,7.9,90,72,56,30.50,30.35,9,3,13,0.00
2013-1-21,16.0,13.8,10.0,12.9,3.1,-2.9,91,64,52,30.55,30.45,12,4,15,0.00
2013-1-22,25.0,16.3,12.0,14.4,10.2,3.2,88,76,59,30.51,30.34,10,2,11,0.00
2013-1-23,33.1,20.0,9.0,20.8,13.6,6.3,92,77,57,30.56,30.28,15,4,19,0.00
2013-1-24,21.0,12.1,3.0,8.4,1.9,-3.3,77,65,52,30.61,30.26,12,5,17,0.00
2013-1-25,54.0,28.2,10.9,28.4,18.7,6.8,90,70,34,30.30,30.21,9,3,12,0.00
2013-1-26,57.0,34.9,18.0,30.7,23.2,15.1,93,67,31,30.30,30.02,18,4,22,0.00
2013-1-27,43.0,38.7,35.1,42.1,36.9,27.7,96,91,65,30.02,29.68,11,3,13,0.21
2013-1-28,43.0,38.1,34.0,43.2,38.2,33.1,97,97,96,29.89,29.59,9,2,11,0.01
2013-1-29,39.0,33.7,30.0,38.7,32.0,28.9,97,93,88,29.74,29.62,15,6,22,0.00
2013-1-30,30.0,19.8,3.9,29.1,17.2,6.3,95,86,73,30.02,29.71,20,7,28,0.00
2013-1-31,16.0,8.8,-5.1,12.6,2.2,-6.2,92,75,58,30.54,30.01,23,6,27,0.00
2013-2-1,28.9,16.1,-2.9,21.4,10.5,-3.8,90,78,70,30.52,30.16,20,6,23,0.00
2013-2-2,43.0,30.7,16.0,35.6,27.3,18.9,94,84,70,30.27,30.10,17,3,27,0.00
2013-2-3,44.1,33.3,19.0,34.0,27.8,20.5,95,79,59,30.27,29.83,17,5,22,0.00
2013-2-4,36.0,27.8,24.1,31.3,24.5,21.4,95,87,79,30.07,29.81,12,4,23,0.00
2013-2-5,54.0,36.5,27.0,34.9,28.6,24.8,94,77,41,30.11,29.90,14,4,20,0.00
2013-2-6,57.9,40.3,27.0,43.7,35.0,26.1,93,79,58,30.11,29.85,16,4,21,0.00
2013-2-7,39.0,34.0,28.9,37.2,30.5,25.9,95,86,81,30.30,29.91,14,4,19,0.00
2013-2-8,39.0,30.6,27.0,31.5,26.6,23.0,92,85,74,30.39,30.17,13,4,14,0.00
2013-2-9,53.1,40.1,30.0,41.2,34.4,27.5,91,81,64,30.18,29.65,17,7,22,0.00
2013-2-10,44.1,37.4,30.9,42.6,33.5,24.6,96,86,73,29.89,29.27,35,12,36,0.05
2013-2-11,42.1,31.9,21.0,26.6,23.6,20.3,91,72,53,30.21,29.89,27,9,34,0.00
2013-2-12,50.0,29.4,16.0,28.9,22.1,16.2,94,74,38,30.21,29.96,17,4,20,0.00
2013-2-13,55.9,34.8,18.0,32.5,26.6,18.5,94,72,37,29.97,29.78,20,4,22,0.00
2013-2-14,46.0,35.2,19.9,32.9,27.1,14.7,94,74,42,30.34,29.86,24,8,28,0.00
2013-2-15,35.1,23.7,12.0,26.4,18.0,10.9,93,79,57,30.43,30.34,19,4,24,0.00
2013-2-16,39.0,24.5,10.0,27.0,19.3,10.0,91,79,56,30.42,30.06,14,4,20,0.00
2013-2-17,61.0,38.8,21.0,35.8,28.7,19.4,92,70,37,30.05,29.58,18,5,20,0.00
2013-2-18,39.9,32.3,19.0,33.1,25.9,16.2,92,76,54,30.14,29.55,21,7,29,0.01
2013-2-19,30.0,18.9,9.0,18.0,6.3,0.1,86,62,30,30.45,30.14,19,7,24,0.00
2013-2-20,24.1,15.7,6.1,16.9,7.4,1.0,84,71,57,30.47,30.27,15,6,16,0.00
2013-2-21,24.1,22.0,21.0,20.3,15.8,10.6,92,78,58,30.32,29.91,18,9,23,0.00
2013-2-22,26.1,16.7,-0.9,19.4,13.3,0.7,92,86,77,30.13,29.91,13,5,16,0.02
2013-2-23,36.0,16.4,-2.9,28.2,14.2,-2.0,90,83,73,30.10,29.92,14,3,16,0.01
2013-2-24,44.1,29.2,12.9,29.5,25.3,17.6,94,82,57,30.13,29.96,9,2,12,0.00
2013-2-25,35.1,30.3,27.0,28.9,26.1,23.4,91,85,75,30.13,29.95,17,6,19,0.00
2013-2-26,32.0,27.5,24.1,26.8,24.8,22.3,93,90,81,30.00,29.87,12,6,16,0.00
2013-2-27,41.0,30.7,25.0,28.6,24.2,21.4,93,80,59,30.10,29.97,23,10,25,0.00
2013-3-3,45.0,39.2,32.0,34.3,31.5,27.3,83,74,65,29.93,29.72,14,8,18,0.00
2013-3-4,41.0,33.8,27.0,33.8,29.0,20.3,94,83,69,30.11,29.66,14,4,25,0.00
2013-3-5,36.0,27.8,21.0,22.3,19.2,16.0,83,72,55,30.47,30.09,29,11,34,0.00
2013-3-6,41.0,28.2,17.1,24.3,20.4,15.8,92,74,48,30.50,30.28,12,4,15,0.00
2013-3-7,55.9,36.7,24.1,31.5,26.2,19.9,86,69,37,30.32,30.11,17,6,18,0.00
2013-3-8,60.1,41.6,26.1,42.6,33.4,23.4,93,75,50,30.21,29.93,16,6,23,0.16
2013-3-9,59.0,46.8,34.0,54.3,44.4,32.0,95,91,80,29.93,29.54,23,6,27,0.26
2013-3-10,34.0,26.8,21.0,32.0,25.2,19.8,100,94,92,30.04,29.74,23,10,34,0.00
2013-3-11,30.9,21.8,10.0,22.5,18.2,9.1,95,92,87,30.11,29.97,15,6,21,0.11
2013-3-12,35.1,24.0,10.0,24.8,21.4,13.1,94,85,71,30.41,30.09,23,6,27,0.01
2013-3-13,39.9,22.0,5.0,29.1,19.4,7.0,93,81,60,30.52,30.30,9,2,10,0.01
2013-3-14,62.1,40.1,25.0,43.5,33.2,23.9,94,74,47,30.30,30.10,8,2,10,0.00
2013-3-15,63.0,44.1,28.0,47.5,39.6,30.7,96,80,50,30.10,29.73,12,3,17,0.00
2013-3-16,42.1,31.8,27.0,39.7,27.4,23.0,92,84,75,30.21,29.85,16,6,20,0.00
2013-3-17,48.0,34.5,25.0,34.9,27.8,21.7,92,77,58,30.18,29.76,14,6,19,0.00
2013-3-18,44.1,34.7,19.9,35.4,23.5,15.1,95,69,39,30.12,29.73,28,9,33,0.06
2013-3-19,55.0,33.6,21.9,33.8,21.4,18.0,92,66,30,30.40,30.10,20,4,23,0.00
2013-3-20,39.9,26.2,16.0,18.0,12.8,5.9,85,60,35,30.46,30.16,14,5,18,0.00
2013-3-21,33.1,26.3,19.0,24.1,18.7,12.9,89,74,61,30.16,29.97,13,5,15,0.03
2013-3-22,35.1,30.5,27.0,27.3,23.9,20.7,90,77,65,30.09,30.01,8,3,10,0.01
2013-3-23,37.0,31.5,28.9,30.4,26.7,23.2,93,83,67,30.17,30.06,15,6,19,0.01
2013-3-24,30.9,26.9,24.1,27.7,20.9,16.0,92,80,67,30.18,30.11,21,9,25,0.01
2013-3-25,30.9,27.1,24.1,24.8,21.9,19.9,91,82,69,30.43,30.17,18,8,23,0.00
2013-3-26,44.1,30.4,15.1,23.4,20.0,14.0,91,68,40,30.45,30.28,8,3,13,0.00
2013-3-27,54.0,37.7,24.1,33.8,27.6,21.2,89,69,45,30.31,30.19,17,6,18,0.00
2013-3-28,60.1,40.2,19.9,36.0,30.8,21.6,96,69,39,30.29,30.17,10,3,16,0.00
2013-3-29,70.0,49.4,26.1,42.4,33.6,25.0,95,60,28,30.24,30.03,13,4,18,0.00
2013-3-30,68.0,55.9,48.9,55.6,46.6,38.3,96,75,38,30.09,29.90,18,4,25,0.91
2013-3-31,61.0,48.8,34.0,43.7,35.3,27.3,93,65,29,30.17,29.94,18,6,27,0.06
2013-4-1,43.0,31.5,21.9,31.8,20.6,15.3,93,69,36,30.39,30.17,14,5,19,0.01
2013-4-2,54.0,33.6,17.1,29.3,23.4,17.1,94,69,37,30.40,30.27,9,2,12,0.00
2013-4-3,55.9,39.4,25.0,29.7,26.3,21.6,87,63,36,30.38,30.24,18,5,18,0.00
2013-4-4,64.9,43.7,23.0,40.3,32.8,23.2,95,67,40,30.27,30.06,16,5,19,0.00
2013-4-5,71.1,50.5,28.0,41.7,34.7,28.0,93,60,29,30.18,29.70,22,7,30,0.00
2013-4-6,73.0,58.6,43.0,46.8,42.2,38.5,81,58,32,29.78,29.60,21,8,29,0.00
2013-4-7,73.0,53.8,36.0,51.1,42.8,34.9,94,69,32,29.83,29.57,18,4,25,0.36
2013-4-8,68.0,56.6,42.1,61.0,54.3,42.8,97,90,76,29.69,29.63,13,4,17,0.01
2013-4-9,63.0,45.2,33.1,60.3,43.6,31.6,95,93,89,30.02,29.52,23,8,30,0.46
2013-4-10,36.0,33.6,30.9,33.8,32.3,30.2,96,94,92,30.04,29.83,17,6,34,0.12
2013-4-11,37.0,32.2,28.9,32.7,29.1,26.6,95,90,85,29.88,29.72,24,10,24,0.05
2013-4-12,48.0,36.4,28.0,32.9,29.5,26.8,90,79,58,30.09,29.81,22,9,24,0.00
2013-4-13,57.9,41.3,21.9,42.8,34.2,22.6,95,76,53,30.09,29.66,18,6,24,0.06
2013-4-14,64.9,51.6,39.9,52.7,41.6,29.7,91,71,40,29.70,29.30,28,10,33,0.00
2013-4-15,48.0,39.5,33.1,33.1,28.5,23.0,88,67,50,30.13,29.70,18,6,19,0.00
2013-4-16,50.0,42.3,35.1,35.1,30.6,28.4,82,66,47,30.28,30.11,19,8,22,0.00
2013-4-17,45.0,40.6,36.0,40.3,37.3,34.2,95,88,67,30.18,29.75,17,7,25,0.46
2013-4-18,37.9,33.7,30.9,34.3,30.5,27.0,95,89,78,30.00,29.75,25,12,31,0.27
2013-4-19,50.0,36.9,26.1,28.9,25.0,22.6,87,67,40,30.17,29.95,20,9,25,0.00
2013-4-20,48.0,35.6,21.0,32.2,26.2,19.6,94,71,41,30.30,30.15,18,6,22,0.00
2013-4-21,68.0,54.3,42.1,48.9,40.2,31.5,94,62,38,30.18,29.97,30,8,34,0.17
2013-4-22,52.0,42.6,33.1,51.6,41.0,29.3,97,94,88,30.26,29.95,21,6,25,1.85
2013-4-23,41.0,33.1,24.1,29.3,25.7,21.7,88,76,58,30.33,30.22,19,6,25,0.00
2013-4-24,62.1,38.3,19.0,38.8,28.1,20.8,95,70,32,30.28,30.09,22,6,32,0.01
2013-4-25,70.0,48.4,24.1,40.3,34.1,25.9,95,62,29,30.30,30.01,22,7,32,0.00
2013-4-26,71.1,56.9,45.0,52.5,44.9,38.7,90,66,46,30.18,30.02,18,6,23,0.00
2013-4-27,71.1,54.0,37.9,54.0,47.7,38.7,100,80,48,30.19,29.93,10,3,12,0.00
2013-4-28,82.0,62.4,45.0,55.8,50.5,44.6,95,69,36,29.95,29.63,20,6,26,0.00
2013-4-29,82.9,65.5,52.0,59.0,51.8,45.5,90,65,31,29.77,29.45,9,3,15,0.00
2013-4-30,73.0,67.5,61.0,58.5,49.1,35.2,67,53,39,29.84,29.42,20,8,25,0.00
2013-5-1,61.0,40.9,33.1,42.6,36.8,31.6,95,86,46,30.48,29.83,24,9,33,0.61
2013-5-2,53.1,40.0,32.0,37.6,32.2,28.9,95,77,51,30.62,30.45,24,5,28,0.23
2013-5-3,53.1,40.8,28.9,34.7,30.1,26.6,92,69,41,30.45,30.09,20,6,27,0.00
2013-5-4,44.1,40.4,37.0,40.3,36.6,30.7,93,86,66,30.20,30.03,20,7,26,0.01
2013-5-5,55.0,47.2,41.0,48.6,43.0,38.8,91,85,77,30.23,30.14,12,4,15,0.00
2013-5-6,69.1,54.5,46.0,52.3,47.6,44.2,92,78,51,30.19,30.01,10,2,11,0.00
2013-5-7,72.0,56.0,37.9,59.9,51.8,41.7,97,83,53,30.09,29.91,10,2,13,0.12
2013-5-8,66.9,61.0,55.9,59.5,56.9,53.4,94,86,73,29.95,29.87,11,4,13,0.01
2013-5-9,68.0,59.6,55.0,58.6,56.0,53.4,95,88,69,30.00,29.83,13,4,20,0.00
2013-5-10,71.1,56.6,45.0,53.2,49.0,45.1,94,78,44,30.12,29.99,15,4,18,0.00
2013-5-11,64.0,52.1,33.1,47.7,33.8,22.8,95,58,26,30.28,30.04,21,5,28,0.00
2013-5-12,66.9,49.6,30.9,39.9,31.7,24.8,92,58,26,30.30,30.09,10,2,13,0.00
2013-5-13,84.0,63.7,39.9,55.9,46.3,36.9,93,59,27,30.11,29.80,23,6,26,0.00
2013-5-14,100.0,76.9,50.0,61.0,53.8,45.1,96,52,16,29.81,29.56,27,8,31,0.00
2013-5-15,84.9,71.4,57.9,55.4,46.3,40.6,65,46,27,29.83,29.67,20,7,23,0.00
2013-5-16,82.9,69.5,54.0,63.9,57.0,47.8,89,67,46,29.82,29.67,13,3,19,0.00
2013-5-17,86.0,73.4,55.9,63.3,60.4,56.5,94,67,44,29.83,29.71,12,3,16,0.00
2013-5-18,82.9,72.5,59.0,70.7,64.4,57.9,93,76,60,29.81,29.60,24,5,30,0.66
2013-5-19,78.1,65.8,57.0,69.3,62.3,56.3,96,88,69,29.70,29.41,19,3,26,0.38
2013-5-20,75.9,64.8,57.0,61.2,55.8,50.7,95,75,49,29.62,29.48,21,9,25,0.00
2013-5-21,66.0,57.8,51.1,56.5,50.4,46.9,92,79,62,29.74,29.58,21,10,25,0.00
2013-5-22,62.1,55.3,48.9,50.9,49.1,47.3,91,82,69,30.00,29.74,19,8,24,0.00
2013-5-23,73.0,59.0,51.1,54.0,49.4,46.0,93,74,42,30.21,30.00,17,5,18,0.00
2013-5-24,75.0,62.3,48.0,55.9,50.9,45.1,90,68,51,30.27,29.96,18,5,25,0.00
2013-5-25,80.1,69.4,60.1,71.8,62.8,52.2,95,80,67,30.09,29.86,15,5,18,0.57
2013-5-26,84.0,74.0,68.0,72.5,67.6,64.8,88,80,65,29.91,29.73,15,4,17,0.00
2013-5-27,79.0,68.7,60.1,69.3,63.8,58.6,96,84,63,29.83,29.51,22,6,27,2.39
2013-5-28,81.0,69.6,60.1,68.7,64.1,60.4,96,82,60,29.67,29.55,12,2,25,0.00
2013-5-29,77.0,68.7,62.1,72.1,65.8,60.8,95,89,80,29.63,29.42,18,5,32,2.11
2013-5-30,77.0,65.5,59.0,65.5,60.1,52.9,95,83,54,29.58,29.44,20,5,23,0.08
2013-5-31,79.0,67.2,53.1,58.3,51.7,46.2,93,64,37,29.70,29.57,18,8,23,0.00
2013-6-1,66.9,59.0,54.0,54.5,50.6,47.5,87,76,65,30.04,29.65,26,10,31,0.00
2013-6-2,71.1,58.6,46.9,51.3,46.4,43.3,93,68,40,30.14,29.96,11,2,14,0.00
2013-6-3,75.0,62.1,46.0,56.5,51.3,45.3,95,71,49,30.02,29.75,15,4,21,0.00
2013-6-4,75.9,66.2,59.0,65.1,60.4,55.6,92,82,69,29.95,29.80,15,2,18,0.01
2013-6-5,75.9,63.5,51.1,62.2,53.3,49.1,92,75,45,30.02,29.91,12,3,17,0.03
2013-6-6,75.9,60.5,46.9,56.8,51.4,48.2,97,77,47,29.99,29.93,11,2,19,0.00
2013-6-7,77.0,61.5,46.0,55.9,50.7,45.1,97,71,40,30.03,29.83,9,1,12,0.00
2013-6-8,73.9,64.0,57.9,67.5,58.8,51.3,95,83,69,29.84,29.60,13,2,23,0.93
2013-6-9,75.0,63.9,55.9,60.8,58.0,55.9,94,84,63,29.81,29.69,20,7,28,0.00
2013-6-10,82.9,67.7,50.0,66.4,59.3,49.8,97,75,50,29.86,29.70,11,2,14,0.01
2013-6-11,90.0,77.6,66.0,72.1,66.3,62.8,93,70,45,29.73,29.57,13,3,21,0.00
2013-6-12,89.1,76.5,61.0,72.7,64.6,54.3,96,70,46,29.97,29.55,19,5,22,0.15
2013-6-13,78.1,63.9,54.0,64.6,57.9,53.8,95,81,47,30.06,29.92,9,1,11,0.06
2013-6-14,91.0,74.2,60.1,76.6,66.2,58.8,94,77,44,29.98,29.64,21,4,27,0.01
2013-6-15,81.0,74.1,66.0,70.2,67.0,62.4,94,79,59,29.88,29.73,18,3,22,0.02
2013-6-16,87.1,73.7,63.0,70.2,65.3,60.8,96,77,44,29.94,29.84,10,1,12,0.01
2013-6-17,90.0,74.9,61.0,63.5,59.9,55.9,92,66,37,29.96,29.86,8,1,13,0.00
2013-6-18,82.9,70.8,57.9,63.7,60.2,56.1,94,72,42,30.01,29.88,9,1,13,0.00
2013-6-19,86.0,73.4,60.1,71.1,64.1,59.4,95,74,50,29.93,29.79,12,2,19,0.01
2013-6-20,90.0,80.0,69.1,74.3,69.7,62.6,85,71,58,29.86,29.68,20,4,23,0.00
2013-6-21,96.1,84.3,75.9,73.9,71.5,67.3,82,67,41,29.75,29.64,16,6,22,0.00
2013-6-22,90.0,79.4,66.0,74.8,68.2,60.1,94,70,49,29.90,29.65,22,6,26,0.21
2013-6-23,80.1,73.4,63.0,72.3,67.3,60.6,94,82,60,29.86,29.65,15,3,22,0.46
2013-6-24,84.9,75.4,70.0,77.0,71.1,66.9,95,86,73,29.86,29.60,21,3,28,0.74
2013-6-25,88.0,79.1,70.0,79.5,71.9,63.7,93,78,63,29.69,29.55,13,2,19,0.00
2013-6-26,93.9,79.0,69.1,75.0,68.6,61.7,96,76,39,29.79,29.57,8,1,12,0.00
2013-6-27,84.0,71.3,64.9,74.8,68.5,64.6,96,89,65,29.93,29.78,13,2,21,0.34
2013-6-28,86.0,74.2,62.1,68.4,63.3,55.8,97,75,43,29.95,29.84,14,3,19,0.00
2013-6-29,81.0,69.1,57.9,61.7,58.7,55.8,94,74,46,29.90,29.84,19,4,24,0.00
2013-6-30,77.0,65.8,55.0,62.1,57.4,53.4,96,77,49,30.07,29.90,11,2,17,0.00
2013-7-1,82.0,65.5,48.9,62.2,54.6,49.8,97,74,40,30.17,30.06,11,1,14,0.00
2013-7-2,82.0,66.3,54.0,64.9,58.0,53.1,95,78,43,30.12,30.00,6,0,12,0.00
2013-7-3,84.0,68.8,54.0,64.8,58.6,53.8,97,74,37,30.04,29.87,5,0,10,0.00
2013-7-4,84.9,71.8,57.0,64.2,57.8,54.1,91,65,38,29.93,29.79,16,3,17,0.00
2013-7-5,87.1,76.1,64.9,67.3,62.3,57.9,83,64,47,29.84,29.72,16,3,22,0.00
2013-7-6,87.1,77.5,71.1,70.5,64.4,59.0,72,65,54,29.78,29.67,16,3,21,0.00
2013-7-7,91.0,79.8,72.0,77.0,67.8,62.4,89,69,51,29.81,29.69,14,4,21,0.00
2013-7-8,89.1,80.1,73.9,76.6,71.2,66.6,88,75,61,29.87,29.78,16,3,18,0.00
2013-7-9,97.0,84.1,73.0,76.3,71.4,63.5,86,68,47,29.85,29.73,12,2,15,0.00
2013-7-10,84.9,75.4,66.0,71.1,67.4,63.3,93,77,54,30.02,29.86,12,2,14,0.00
2013-7-11,87.1,74.1,62.1,66.0,63.2,60.1,94,71,46,30.05,29.86,13,2,15,0.00
2013-7-12,93.0,80.7,70.0,74.5,67.1,59.4,74,64,52,29.91,29.78,14,3,19,0.00
2013-7-13,91.9,81.9,72.0,76.6,71.8,68.4,90,72,54,29.86,29.77,17,3,20,0.35
2013-7-14,86.0,76.1,66.9,69.4,65.6,60.8,91,72,46,30.06,29.84,10,2,17,0.16
2013-7-15,88.0,73.9,59.0,71.6,65.5,59.2,96,76,49,30.13,30.01,10,1,15,0.00
2013-7-16,89.1,76.6,64.9,72.0,66.7,63.7,94,74,49,30.19,30.10,11,2,14,0.00
2013-7-17,90.0,78.6,64.9,72.0,68.8,65.5,96,74,52,30.22,30.06,10,2,14,0.00
2013-7-18,91.0,80.1,69.1,72.5,69.0,66.4,91,71,50,30.08,29.81,17,5,22,0.00
2013-7-19,91.0,80.3,66.9,73.9,68.8,64.4,91,71,46,29.86,29.77,11,2,16,0.00
2013-7-20,88.0,74.5,61.0,69.1,63.8,54.5,96,72,36,29.91,29.75,13,2,13,0.00
2013-7-21,91.0,77.3,66.9,74.3,69.6,65.1,94,78,55,29.83,29.66,13,2,13,0.00
2013-7-22,96.1,79.6,63.0,77.4,69.9,63.9,97,74,40,29.75,29.64,12,2,14,0.00
2013-7-23,81.0,71.3,64.0,69.8,65.1,61.5,94,81,64,29.94,29.74,16,3,21,0.24
2013-7-24,84.9,70.7,57.0,68.2,63.3,56.1,97,80,54,30.04,29.91,12,0,13,0.00
2013-7-25,79.0,71.2,64.9,70.0,66.0,63.0,93,83,65,29.98,29.91,13,2,15,0.00
2013-7-26,79.0,68.5,53.1,67.8,59.6,52.3,96,76,46,30.06,29.91,15,2,24,0.00
2013-7-27,75.9,62.2,50.0,54.5,50.8,46.4,95,72,39,30.11,29.96,13,1,14,0.00
2013-7-28,78.1,62.2,45.0,58.3,51.8,44.8,97,72,43,30.05,29.94,9,0,10,0.00
2013-7-29,64.9,62.6,57.9,64.6,60.8,56.3,96,92,84,30.00,29.95,10,1,11,0.69
2013-7-30,78.1,69.8,64.0,69.1,66.5,63.9,97,89,71,30.08,29.98,7,0,8,0.01
2013-7-31,89.1,72.4,61.0,72.3,66.9,60.6,97,83,54,30.11,29.96,9,0,10,0.00
2013-8-1,86.0,71.3,59.0,72.3,66.0,59.4,97,83,53,30.04,29.81,20,2,24,0.66
2013-8-2,82.9,73.1,64.0,71.8,68.0,62.2,96,83,66,29.93,29.73,15,3,18,0.04
2013-8-3,77.0,68.0,61.0,66.0,62.0,59.0,93,82,64,30.12,29.94,11,2,13,0.00
2013-8-4,77.0,68.2,60.1,70.2,63.3,57.7,94,84,70,30.12,29.94,14,2,16,0.00
2013-8-5,86.0,75.8,69.1,76.3,71.9,67.1,94,87,71,29.98,29.75,14,2,16,0.00
2013-8-6,87.1,75.9,66.0,77.9,72.0,65.7,97,85,69,29.85,29.69,15,2,16,0.00
2013-8-7,84.0,72.3,63.0,70.7,65.5,61.2,96,81,52,29.92,29.75,11,1,11,0.00
2013-8-8,79.0,68.5,62.1,68.4,64.8,60.4,95,87,67,29.96,29.88,5,0,6,0.00
2013-8-9,80.1,70.6,59.0,70.7,65.1,58.8,97,83,56,30.09,29.96,11,1,12,0.00
2013-8-10,82.9,68.9,53.1,68.5,62.4,53.4,97,79,58,30.15,30.00,14,2,15,0.00
2013-8-11,84.9,72.6,61.0,72.1,66.4,59.7,94,81,62,30.06,29.90,15,3,16,0.03
2013-8-12,84.0,72.9,63.0,72.0,67.0,61.5,96,83,52,30.01,29.92,12,2,14,0.03
2013-8-13,79.0,67.9,57.9,64.4,60.8,56.1,95,79,49,30.11,30.01,9,1,10,0.00
2013-8-14,75.0,64.7,53.1,64.9,59.6,52.7,96,83,60,30.14,30.00,9,1,11,0.06
2013-8-15,69.1,65.2,63.0,64.8,62.3,59.7,95,89,76,30.05,29.96,10,2,12,0.52
2013-8-16,73.9,66.1,60.1,63.7,61.3,59.5,95,84,66,30.12,30.04,10,1,12,0.00
2013-8-17,79.0,69.0,60.1,62.2,60.0,56.5,91,75,53,30.14,30.03,14,2,15,0.00
2013-8-18,80.1,66.4,52.0,65.5,59.7,51.8,97,79,56,30.11,29.97,16,2,16,0.00
2013-8-19,84.9,74.1,63.0,71.4,66.9,60.8,93,79,62,30.01,29.83,17,4,20,0.00
2013-8-20,88.0,77.6,68.0,73.4,69.5,66.0,91,77,60,29.88,29.80,20,5,21,0.00
2013-8-21,91.0,79.1,68.0,74.7,70.1,65.7,92,75,57,29.91,29.82,15,4,17,0.00
2013-8-22,84.9,75.6,68.0,73.0,69.3,65.7,93,81,63,30.01,29.86,14,2,15,0.03
2013-8-23,90.0,78.9,69.1,74.5,69.8,67.5,95,76,53,29.99,29.86,19,2,19,0.00
2013-8-24,93.0,82.7,73.9,75.2,71.3,67.8,84,69,53,29.95,29.86,20,5,26,0.00
2013-8-25,93.9,83.2,73.0,74.5,71.7,69.4,87,70,49,30.01,29.91,20,6,21,0.00
2013-8-26,93.9,83.2,73.0,74.5,71.2,68.7,88,68,49,29.97,29.84,18,6,20,0.00
2013-8-27,95.0,82.3,72.0,72.5,69.0,64.8,84,66,45,29.86,29.77,17,6,20,0.00
2013-8-28,93.9,78.8,64.0,72.3,66.8,62.2,92,69,43,29.91,29.82,13,2,15,0.00
2013-8-29,97.0,79.1,63.0,75.2,70.3,64.4,96,75,45,29.91,29.79,15,2,20,0.00
2013-8-30,100.9,80.4,66.0,79.3,71.7,66.0,95,76,39,29.83,29.73,11,1,13,0.00
2013-8-31,96.1,79.4,70.0,75.7,71.2,68.0,95,78,42,29.82,29.66,12,1,16,0.00
2013-9-1,87.1,74.5,57.0,71.1,63.5,56.3,95,73,39,29.94,29.66,19,2,21,0.03
2013-9-2,82.9,65.3,52.0,62.6,57.5,52.9,97,77,44,30.06,29.94,11,1,12,0.00
2013-9-3,86.0,67.1,48.9,63.9,58.0,49.1,97,74,46,30.06,29.95,13,1,13,0.00
2013-9-4,87.1,70.8,55.9,65.5,61.4,53.4,95,73,35,30.10,29.97,12,1,13,0.00
2013-9-5,89.1,74.8,64.0,65.8,63.3,60.8,90,69,43,30.11,29.99,15,1,15,0.00
2013-9-6,93.9,78.8,64.0,70.5,66.1,60.3,89,67,44,30.02,29.80,18,2,18,0.00
2013-9-7,95.0,78.9,70.0,72.9,69.1,64.9,90,73,41,29.83,29.77,14,2,17,0.00
2013-9-8,96.1,79.1,66.9,74.7,71.1,66.9,96,77,45,29.83,29.66,10,1,13,0.00
2013-9-9,98.1,82.9,71.1,71.1,62.8,56.8,80,54,28,29.75,29.67,22,5,25,0.00
2013-9-10,96.1,79.6,68.0,71.6,64.7,58.8,95,64,35,29.99,29.74,19,4,22,0.78
2013-9-11,81.0,72.5,68.0,73.6,70.1,68.0,97,91,75,30.06,29.94,10,0,10,0.62
2013-9-12,80.1,68.6,55.0,69.1,59.8,52.7,96,77,42,30.17,30.05,13,2,16,0.00
2013-9-13,75.9,61.0,48.0,56.5,52.8,47.7,97,77,43,30.19,30.01,11,0,13,0.00
2013-9-14,77.0,64.7,50.0,60.1,55.1,50.2,95,73,48,30.03,29.80,14,2,19,0.00
2013-9-15,69.1,64.9,61.0,66.0,60.1,55.6,95,84,73,30.20,29.79,17,3,18,0.21
2013-9-16,64.9,60.1,54.0,57.0,55.2,52.0,94,84,73,30.29,30.15,14,2,15,0.05
2013-9-17,75.0,65.0,57.9,68.9,62.9,56.3,96,91,78,30.16,29.81,15,1,16,0.17
2013-9-18,90.0,77.3,66.0,72.5,68.5,65.3,95,75,54,29.82,29.59,22,5,24,0.00
2013-9-19,82.0,68.7,54.0,68.5,61.4,51.3,95,80,57,29.98,29.63,18,3,19,0.25
2013-9-20,75.0,57.4,44.1,52.9,47.8,44.2,97,76,40,30.09,29.93,21,2,21,0.00
2013-9-21,79.0,60.0,42.1,57.2,50.6,41.2,97,74,43,30.02,29.79,13,1,15,0.00
2013-9-22,81.0,67.1,55.0,57.2,53.4,50.7,92,65,39,29.85,29.70,21,4,24,0.00
2013-9-23,77.0,66.1,53.1,55.8,52.2,48.2,85,63,41,29.77,29.62,24,5,27,0.00
2013-9-24,72.0,62.7,53.1,59.2,56.3,52.0,94,80,65,29.88,29.61,14,2,16,0.00
2013-9-25,79.0,63.4,46.9,62.8,56.9,47.3,97,79,56,29.90,29.67,16,2,18,0.00
2013-9-26,89.1,74.7,64.0,62.4,60.4,58.8,86,64,40,29.71,29.62,23,6,25,0.00
2013-9-27,88.0,77.6,70.0,64.6,61.1,58.6,72,58,44,29.73,29.62,28,6,28,0.00
2013-9-28,75.0,61.6,44.1,63.9,50.2,42.1,92,72,40,30.03,29.58,20,6,24,0.14
2013-9-29,78.1,58.3,39.9,50.4,44.5,40.6,96,66,30,30.05,29.84,19,4,22,0.00
2013-9-30,82.9,64.3,50.0,54.9,50.6,46.8,89,65,34,29.86,29.65,21,5,22,0.00
2013-10-1,82.0,64.7,50.0,55.0,51.4,46.6,95,67,32,29.91,29.72,13,2,14,0.00
2013-10-2,84.9,68.8,50.0,66.4,59.2,47.7,96,73,48,29.91,29.74,19,3,22,0.00
2013-10-3,80.1,68.4,60.1,68.5,63.0,59.0,95,83,65,29.84,29.62,20,2,20,1.74
2013-10-4,84.9,66.6,48.0,71.8,59.6,36.7,94,79,53,29.87,29.52,23,8,27,0.01
2013-10-5,54.0,46.0,41.0,37.9,35.7,33.8,85,70,54,29.93,29.85,25,11,28,0.00
2013-10-6,60.1,46.6,39.9,48.0,40.6,34.0,94,83,54,30.05,29.84,21,7,26,0.05
2013-10-7,75.0,54.2,36.0,45.3,40.9,35.2,95,67,30,30.11,29.96,15,3,18,0.00
2013-10-8,77.0,62.5,48.0,49.1,45.2,41.7,78,56,37,29.98,29.83,23,5,27,0.00
2013-10-9,79.0,65.2,54.0,55.6,50.9,46.8,78,62,42,29.94,29.85,17,4,20,0.00
2013-10-10,81.0,67.8,55.9,60.8,56.2,52.0,88,68,49,29.92,29.70,20,4,20,0.00
2013-10-11,78.1,65.5,48.0,60.6,51.8,40.8,85,65,28,29.86,29.56,27,8,29,0.00
2013-10-12,71.1,50.4,36.0,42.8,37.2,30.6,96,70,26,30.29,29.86,18,2,21,0.00
2013-10-13,70.0,50.7,34.0,41.9,36.9,32.4,95,65,33,30.43,30.26,13,2,14,0.00
2013-10-14,60.1,53.9,46.9,58.5,47.4,36.5,94,80,51,30.27,29.69,23,7,30,0.76
2013-10-15,55.0,47.9,43.0,48.7,40.7,37.0,88,79,66,30.12,29.81,27,11,29,0.01
2013-10-16,60.1,46.3,35.1,41.4,36.7,28.8,92,75,41,30.12,29.97,15,4,17,0.00
2013-10-17,63.0,44.5,30.0,44.1,37.1,29.7,96,79,52,30.11,29.93,21,4,22,0.00
2013-10-18,53.1,39.0,30.0,37.2,31.3,27.0,95,78,41,30.19,30.06,10,2,11,0.00
2013-10-19,66.9,43.2,28.0,39.6,33.8,26.8,94,76,37,30.06,29.83,16,3,22,0.00
2013-10-20,69.1,49.7,35.1,43.7,38.9,34.0,95,71,39,30.04,29.74,19,2,19,0.00
2013-10-21,59.0,41.2,27.0,40.6,34.9,28.4,95,79,45,30.13,29.94,14,2,17,0.00
2013-10-22,55.0,44.3,28.9,44.2,38.3,28.2,97,80,58,30.17,29.91,15,4,22,0.00
2013-10-23,55.0,38.7,26.1,42.8,34.7,25.0,96,84,60,30.27,30.07,13,2,16,0.00
2013-10-24,53.1,38.1,25.0,35.2,28.5,23.5,95,74,37,30.46,30.27,12,1,18,0.00
2013-10-25,60.1,41.6,23.0,36.1,29.9,22.1,94,67,39,30.46,30.11,21,6,26,0.00
2013-10-26,55.9,41.4,26.1,36.3,31.5,24.1,93,70,39,30.27,30.07,16,2,19,0.00
2013-10-27,72.0,45.4,23.0,39.7,32.5,22.3,93,66,30,30.19,29.83,16,4,23,0.00
2013-10-28,53.1,46.0,37.0,41.2,37.6,34.2,92,73,59,30.21,29.96,16,7,22,0.01
2013-10-29,51.1,47.0,43.0,50.7,45.4,41.0,96,93,86,30.18,29.96,14,4,17,0.12
2013-10-30,57.0,47.1,39.9,54.1,45.5,39.4,97,94,87,29.97,29.79,11,2,16,0.03
2013-10-31,62.1,43.3,33.1,47.8,38.4,32.5,97,84,48,29.80,29.54,18,3,28,0.01
2013-11-1,63.0,46.7,36.0,43.0,38.5,35.2,94,76,41,30.05,29.65,20,7,30,0.00
2013-11-2,62.1,43.6,30.0,37.8,33.3,29.8,94,72,34,30.23,30.04,12,3,14,0.00
2013-11-3,57.9,49.8,37.0,39.9,35.4,29.1,80,60,46,30.09,29.71,31,7,31,0.00
2013-11-4,59.0,47.9,30.0,43.3,38.1,29.1,92,70,47,30.15,29.75,14,2,20,0.00
2013-11-5,43.0,38.8,28.9,41.4,36.4,28.8,95,91,78,30.15,29.83,18,6,23,1.04
2013-11-6,46.0,35.7,27.0,36.7,32.0,27.1,95,88,69,30.32,30.09,12,4,20,0.01
2013-11-7,52.0,35.9,26.1,32.4,27.3,23.5,96,78,35,30.47,30.30,16,3,17,0.00
2013-11-8,62.1,46.5,30.0,41.0,35.1,27.1,91,67,39,30.30,29.75,33,5,33,0.00
2013-11-9,64.9,44.7,30.9,37.8,35.2,32.5,95,73,37,30.38,29.96,15,2,17,0.00
2013-11-10,55.0,40.5,26.1,37.6,32.5,25.3,95,74,43,30.42,30.17,11,1,13,0.00
2013-11-11,44.1,32.9,19.0,43.9,26.2,12.0,96,76,57,30.83,30.12,24,6,27,0.00
2013-11-12,36.0,21.2,8.1,14.0,10.6,5.9,91,68,33,30.96,30.63,11,2,12,0.00
2013-11-13,55.9,38.2,21.0,33.6,24.3,13.3,73,59,42,30.64,30.01,25,8,26,0.00
2013-11-14,55.9,39.6,26.1,39.4,31.4,24.8,91,70,51,30.01,29.92,15,-2,15,0.00
2013-11-15,57.0,40.0,21.9,43.9,34.2,23.5,95,78,51,29.94,29.60,16,2,18,0.00
2013-11-16,66.0,49.7,32.0,51.3,40.3,29.1,93,73,34,29.60,29.33,22,5,28,0.00
2013-11-17,60.1,45.7,30.0,42.6,35.9,28.8,92,70,45,30.08,29.30,30,5,30,0.00
2013-11-18,59.0,37.6,21.9,34.9,26.7,23.7,94,69,29,30.28,30.08,15,3,16,0.00
2013-11-19,62.1,46.7,28.9,36.7,28.6,24.4,82,54,32,30.20,29.86,28,6,30,0.00
2013-11-20,62.1,49.2,34.0,40.8,35.1,27.0,90,60,43,29.93,29.71,20,5,21,0.00
2013-11-21,36.0,27.2,21.0,34.5,21.8,16.2,94,80,70,30.66,29.92,24,7,24,0.00
2013-11-22,35.1,20.5,12.0,16.2,11.2,6.6,87,71,42,30.81,30.64,15,3,17,0.00
2013-11-23,26.1,17.6,8.1,16.9,8.6,3.2,89,71,41,30.97,30.71,14,4,16,0.00
2013-11-24,34.0,21.5,8.1,15.4,10.1,4.5,88,64,43,30.84,30.29,20,6,21,0.00
2013-11-25,48.0,31.9,23.0,31.6,22.9,10.9,88,69,47,30.30,30.18,17,4,18,0.00
2013-11-26,35.1,23.1,9.0,24.4,15.1,6.8,94,71,39,30.52,30.27,23,4,29,0.00
2013-11-27,36.0,21.0,5.0,19.8,12.6,2.8,91,70,45,30.52,30.13,18,4,18,0.00
2013-11-28,37.0,25.0,12.9,23.0,18.4,11.5,93,74,48,30.54,30.16,16,2,19,0.00
2013-11-29,50.0,29.3,10.0,30.0,21.1,9.1,93,72,46,30.55,30.18,13,2,17,0.00
2013-11-30,63.0,34.8,19.0,34.5,27.3,19.4,94,71,32,30.19,30.09,7,1,7,0.00
2013-12-1,50.0,32.1,19.0,32.5,27.2,19.8,99,77,51,30.20,29.89,7,0,10,0.00
2013-12-2,66.9,41.7,25.0,39.0,32.0,22.8,94,69,33,29.89,29.54,12,1,13,0.00
2013-12-3,44.1,35.9,28.0,35.1,31.7,27.0,91,83,68,29.73,29.51,17,3,17,0.00
2013-12-4,34.0,21.8,16.0,31.3,16.8,8.2,93,83,71,30.20,29.69,23,9,25,0.00
2013-12-5,18.0,11.7,6.1,8.1,0.7,-3.6,78,64,49,30.56,30.18,20,6,21,0.00
2013-12-6,15.1,6.1,-2.9,-2.6,-4.3,-6.7,79,64,45,30.84,30.55,14,3,17,0.00
2013-12-7,12.9,4.0,-6.0,7.9,-2.5,-9.6,87,75,56,30.88,30.50,12,2,12,0.00
2013-12-8,19.0,13.1,0.0,13.8,10.2,2.1,89,85,80,30.50,30.10,13,2,14,0.00
2013-12-9,17.1,2.8,-15.0,8.4,-1.7,-12.5,89,76,56,30.48,30.20,21,4,24,0.00
2013-12-10,30.0,20.7,5.0,27.1,14.9,7.2,90,76,64,30.37,30.19,19,4,25,0.03
2013-12-11,30.0,10.9,1.0,26.2,3.1,-4.5,85,72,55,30.76,30.34,19,4,22,0.00
2013-12-12,33.1,17.4,5.0,24.1,13.3,1.8,91,79,67,30.58,30.15,11,3,12,0.00
2013-12-13,30.0,18.5,5.0,24.6,16.4,4.1,92,86,77,30.19,29.95,19,2,19,0.00
2013-12-14,27.0,17.3,7.0,18.5,13.8,7.3,92,83,69,30.32,30.19,15,4,19,0.00
2013-12-15,32.0,21.8,12.0,26.4,19.6,12.4,93,86,75,30.25,30.03,7,1,9,0.00
2013-12-16,51.1,26.7,10.0,35.8,22.7,8.8,93,83,55,30.26,30.04,14,1,15,0.00
2013-12-17,46.0,29.9,19.0,29.5,22.7,18.7,95,77,40,30.37,30.14,18,3,19,0.00
2013-12-18,57.9,37.9,25.0,34.0,28.1,20.8,89,68,39,30.14,29.74,13,4,16,0.00
2013-12-19,34.0,28.2,17.1,29.3,23.3,13.6,93,81,71,29.98,29.75,20,6,24,0.00
2013-12-20,19.0,16.1,12.0,14.5,11.6,8.4,91,84,79,30.08,29.97,18,4,21,0.00
2013-12-21,26.1,21.0,16.0,18.9,16.3,13.3,92,82,69,29.99,29.86,18,3,19,0.00
2013-12-22,25.0,17.7,8.1,19.2,11.3,4.1,91,78,58,30.49,29.96,16,5,20,0.00
2013-12-23,17.1,8.8,1.0,4.6,-0.9,-4.4,82,68,47,30.72,30.48,15,4,16,0.00
2013-12-24,28.0,17.6,8.1,25.2,12.9,1.8,92,82,71,30.62,30.21,20,6,22,0.00
2013-12-25,46.0,26.0,12.0,29.7,20.9,13.3,94,77,47,30.38,30.30,22,4,27,0.00
2013-12-26,54.0,29.4,16.0,26.2,20.5,15.4,92,70,30,30.33,30.17,13,2,13,0.00
2013-12-27,63.0,34.1,14.0,31.3,22.8,13.1,93,66,25,30.33,30.11,27,4,28,0.00
2013-12-28,62.1,37.3,17.1,31.6,25.2,8.2,93,65,26,30.22,29.77,29,6,29,0.00
2013-12-29,18.0,9.8,1.0,8.6,-5.6,-13.4,76,55,26,30.47,30.21,26,6,29,0.00
2013-12-30,43.0,21.4,1.0,27.5,8.9,-7.4,86,60,44,30.39,30.16,27,6,30,0.00
2013-12-31,41.0,18.6,6.1,25.0,11.9,4.8,89,75,50,30.38,30.06,21,5,25,0.00
2014-1-1,12.0,9.4,5.0,6.3,4.3,-0.0,89,80,76,30.54,30.20,16,6,19,0.00
2014-1-2,12.9,4.3,-5.1,4.1,0.0,-5.1,89,79,64,30.61,30.50,10,2,11,0.00